Gustavus, AK

6:18 AM AKST on February 24, 2017 (GMT -0900)
Gustavus

Weather History for PAGS - April, 2014

Change the Weather History Date:

Friday, April 18, 2014

  Actual Average Record
Temperature  
Mean Temperature 42 °F -  
Max Temperature 48 °F 49 °F 59 °F (2012)
Min Temperature 35 °F 34 °F 19 °F (2008)
Degree Days  
Heating Degree Days 24    
Moisture  
Dew Point 36 °F    
Average Humidity 77    
Maximum Humidity 93    
Minimum Humidity 58    
Precipitation  
Precipitation 0.00 in - - ()
Sea Level Pressure  
Sea Level Pressure 29.71 in    
Wind  
Wind Speed 7 mph (SE)    
Max Wind Speed 17 mph    
Max Gust Speed 22 mph    
Visibility 10 miles    
Events      
Averages and records for this station are not official NWS values.
T = Trace of Precipitation, MM = Missing Value Source: NWS Daily Summary

Daily Weather History Graph

Daily Weather History Graph

Search for Another Location

Airport or City:

Trip Planner

Search our weather history database for the weather conditions in past years. The results will help you decide how hot, cold, wet, or windy it might be!

Date:

Astronomy

Apr. 18, 2014 Rise Set
Actual Time 5:42 AM AKDT 8:23 PM AKDT
Civil Twilight 4:57 AM AKDT 9:08 PM AKDT
Nautical Twilight 3:58 AM AKDT 10:08 PM AKDT
Astronomical Twilight 2:38 AM AKDT 11:31 PM AKDT
Moon No Moon Rise 7:39 AM AKDT (4/18)
Length of Visible Light 16h 10m
Length of Day
14h 41m
Waning Gibbous, 86% of the Moon is Illuminated
Apr 18
Waning Gibbous
Apr 21
Last Quarter
Apr 28
New
May 6
First Quarter
May 14
Full

Hourly Weather History & Observations

Time (AKDT) Temp. Windchill Dew Point Humidity Pressure Visibility Wind Dir Wind Speed Gust Speed Precip Events Conditions
12:16 AM 39.2 °F - 35.6 °F 87% 29.54 in 3.0 mi Calm Calm - N/A   Overcast
12:36 AM 39.2 °F - 35.6 °F 87% 29.55 in 8.0 mi Calm Calm - N/A   Overcast
12:56 AM 39.2 °F - 35.6 °F 87% 29.55 in 10.0 mi North - - N/A   Overcast
1:16 AM 37.4 °F - 35.6 °F 93% 29.56 in 5.0 mi Calm Calm - N/A   Overcast
1:36 AM 39.2 °F - 35.6 °F 87% 29.56 in 10.0 mi Calm Calm - N/A   Overcast
1:56 AM 41.0 °F 37.1 °F 37.4 °F 87% 29.57 in 10.0 mi SE 5.8 mph - N/A   Overcast
2:16 AM 42.8 °F 38.6 °F 37.4 °F 81% 29.58 in 10.0 mi SE 6.9 mph - N/A   Overcast
2:36 AM 42.8 °F 37.0 °F 35.6 °F 76% 29.58 in 10.0 mi SE 10.4 mph - N/A   Overcast
2:56 AM 42.8 °F 37.5 °F 35.6 °F 76% 29.59 in 10.0 mi SE 9.2 mph - N/A   Overcast
3:16 AM 42.8 °F 37.5 °F 35.6 °F 76% 29.60 in 10.0 mi SSE 9.2 mph - N/A   Overcast
3:36 AM 42.8 °F 36.6 °F 35.6 °F 76% 29.60 in 10.0 mi SE 11.5 mph - N/A   Overcast
3:56 AM 42.8 °F 36.6 °F 35.6 °F 76% 29.61 in 10.0 mi SE 11.5 mph - N/A   Overcast
4:16 AM 42.8 °F 37.0 °F 35.6 °F 76% 29.62 in 10.0 mi SE 10.4 mph - N/A   Overcast
4:36 AM 41.0 °F 34.7 °F 35.6 °F 81% 29.63 in 10.0 mi SE 10.4 mph - N/A   Overcast
4:56 AM 41.0 °F 34.3 °F 35.6 °F 81% 29.63 in 10.0 mi SE 11.5 mph - N/A   Overcast
5:16 AM 41.0 °F 35.2 °F 35.6 °F 81% 29.64 in 10.0 mi SE 9.2 mph - N/A   Overcast
5:36 AM 41.0 °F 34.3 °F 35.6 °F 81% 29.65 in 10.0 mi SE 11.5 mph - N/A   Overcast
5:56 AM 41.0 °F 34.7 °F 35.6 °F 81% 29.66 in 10.0 mi SE 10.4 mph - N/A   Overcast
6:16 AM 41.0 °F 35.2 °F 35.6 °F 81% 29.67 in 10.0 mi SE 9.2 mph - N/A   Overcast
6:36 AM 41.0 °F 34.3 °F 35.6 °F 81% 29.67 in 10.0 mi SE 11.5 mph - N/A   Overcast
6:56 AM 41.0 °F 33.9 °F 35.6 °F 81% 29.68 in 10.0 mi SE 12.7 mph - N/A   Overcast
7:16 AM 41.0 °F 35.2 °F 35.6 °F 81% 29.69 in 10.0 mi SE 9.2 mph - N/A   Overcast
7:36 AM 41.0 °F 34.3 °F 37.4 °F 87% 29.70 in 10.0 mi SE 11.5 mph - N/A   Overcast
7:56 AM 42.8 °F 37.5 °F 37.4 °F 81% 29.71 in 10.0 mi SE 9.2 mph - N/A   Overcast
8:16 AM 42.8 °F 37.0 °F 35.6 °F 76% 29.72 in 10.0 mi SE 10.4 mph - N/A   Overcast
8:36 AM 42.8 °F 37.0 °F 37.4 °F 81% 29.73 in 10.0 mi SE 10.4 mph - N/A   Overcast
8:56 AM 42.8 °F 37.5 °F 35.6 °F 76% 29.73 in 10.0 mi SE 9.2 mph - N/A   Overcast
9:16 AM 42.8 °F 38.0 °F 37.4 °F 81% 29.74 in 10.0 mi ESE 8.1 mph - N/A   Overcast
9:36 AM 42.8 °F 37.0 °F 37.4 °F 81% 29.75 in 10.0 mi ESE 10.4 mph - N/A   Overcast
9:56 AM 44.6 °F 39.2 °F 37.4 °F 76% 29.75 in 10.0 mi ESE 10.4 mph - N/A   Overcast
10:16 AM 44.6 °F 39.7 °F 37.4 °F 76% 29.76 in 10.0 mi ESE 9.2 mph - N/A   Overcast
10:36 AM 44.6 °F 38.8 °F 37.4 °F 76% 29.76 in 10.0 mi ESE 11.5 mph - N/A   Overcast
10:56 AM 44.6 °F 38.1 °F 37.4 °F 76% 29.76 in 10.0 mi SE 13.8 mph - N/A   Overcast
11:16 AM 46.4 °F 40.7 °F 37.4 °F 71% 29.77 in 10.0 mi SE 12.7 mph 16.1 mph N/A   Overcast
11:36 AM 46.4 °F 39.5 °F 37.4 °F 71% 29.77 in 10.0 mi SE 17.3 mph - N/A   Overcast
11:56 AM 46.4 °F 40.1 °F 37.4 °F 71% 29.78 in 10.0 mi SE 15.0 mph - N/A   Overcast
12:16 PM 46.4 °F 40.7 °F 37.4 °F 71% 29.78 in 10.0 mi ESE 12.7 mph 21.9 mph N/A   Overcast
12:36 PM 46.4 °F 39.8 °F 37.4 °F 71% 29.79 in 10.0 mi SSE 16.1 mph - N/A   Mostly Cloudy
12:56 PM 44.6 °F 41.4 °F 33.8 °F 66% 29.80 in 9.0 mi South 5.8 mph 20.7 mph N/A   Overcast
1:16 PM 46.4 °F 41.9 °F 37.4 °F 71% 29.79 in 10.0 mi ESE 9.2 mph - N/A   Overcast
1:36 PM 48.2 °F - 35.6 °F 62% 29.79 in 10.0 mi SE 9.2 mph - N/A   Scattered Clouds
1:56 PM 48.2 °F - 35.6 °F 62% 29.79 in 10.0 mi ESE 11.5 mph - N/A   Mostly Cloudy
2:16 PM 46.4 °F 42.4 °F 35.6 °F 66% 29.79 in 10.0 mi ESE 8.1 mph - N/A   Mostly Cloudy
2:36 PM 48.2 °F - 35.6 °F 62% 29.79 in 10.0 mi ESE 11.5 mph - N/A   Mostly Cloudy
2:56 PM 48.2 °F - 33.8 °F 58% 29.79 in 10.0 mi ESE 10.4 mph - N/A   Mostly Cloudy
3:16 PM 48.2 °F - 33.8 °F 58% 29.79 in 10.0 mi SE 8.1 mph - N/A   Mostly Cloudy
3:36 PM 48.2 °F - 33.8 °F 58% 29.79 in 10.0 mi SSW 8.1 mph - N/A   Overcast
3:56 PM 46.4 °F 41.1 °F 35.6 °F 66% 29.79 in 10.0 mi SW 11.5 mph - N/A   Overcast
4:16 PM 44.6 °F 39.2 °F 37.4 °F 76% 29.78 in 10.0 mi SW 10.4 mph - N/A   Mostly Cloudy
4:36 PM 44.6 °F - 37.4 °F 76% 29.78 in 10.0 mi Calm Calm - N/A   Mostly Cloudy
4:56 PM 44.6 °F 43.1 °F 37.4 °F 76% 29.78 in 10.0 mi NNW 3.5 mph - N/A   Mostly Cloudy
5:16 PM 46.4 °F 44.3 °F 37.4 °F 71% 29.78 in 10.0 mi North 4.6 mph - N/A   Overcast
5:36 PM 46.4 °F 42.9 °F 37.4 °F 71% 29.77 in 10.0 mi NW 6.9 mph - N/A   Overcast
5:56 PM 46.4 °F 43.5 °F 37.4 °F 71% 29.76 in 10.0 mi NW 5.8 mph - N/A   Overcast
6:16 PM 46.4 °F 45.2 °F 37.4 °F 71% 29.76 in 10.0 mi NW 3.5 mph - N/A   Mostly Cloudy
6:36 PM 46.4 °F - 37.4 °F 71% 29.76 in 10.0 mi Calm Calm - N/A   Scattered Clouds
6:56 PM 46.4 °F - 37.4 °F 71% 29.75 in 10.0 mi Calm Calm - N/A   Clear
7:16 PM 44.6 °F 43.1 °F 37.4 °F 76% 29.75 in 10.0 mi West 3.5 mph - N/A   Clear
7:36 PM 44.6 °F 42.2 °F 37.4 °F 76% 29.75 in 10.0 mi WSW 4.6 mph - N/A   Mostly Cloudy
7:56 PM 44.6 °F 42.2 °F 37.4 °F 76% 29.75 in 10.0 mi NNW 4.6 mph - N/A   Overcast
8:16 PM 42.8 °F 41.1 °F 35.6 °F 76% 29.74 in 10.0 mi NW 3.5 mph - N/A   Overcast
8:36 PM 42.8 °F 41.1 °F 35.6 °F 76% 29.74 in 10.0 mi NW 3.5 mph - N/A   Overcast
8:56 PM 41.0 °F 37.1 °F 35.6 °F 81% 29.74 in 10.0 mi NW 5.8 mph - N/A   Mostly Cloudy
9:16 PM 39.2 °F 34.2 °F 35.6 °F 87% 29.74 in 10.0 mi NNW 6.9 mph - N/A   Scattered Clouds
9:36 PM 39.2 °F 33.6 °F 35.6 °F 87% 29.73 in 10.0 mi NNW 8.1 mph - N/A   Mostly Cloudy
9:56 PM 37.4 °F 33.8 °F 33.8 °F 87% 29.73 in 10.0 mi NNW 4.6 mph - N/A   Scattered Clouds
10:16 PM 39.2 °F 37.0 °F 33.8 °F 81% 29.72 in 10.0 mi NW 3.5 mph - N/A   Mostly Cloudy
10:36 PM 37.4 °F 30.8 °F 33.8 °F 87% 29.72 in 10.0 mi NNW 9.2 mph - N/A   Mostly Cloudy
10:56 PM 37.4 °F 32.1 °F 33.8 °F 87% 29.71 in 10.0 mi NNW 6.9 mph - N/A   Partly Cloudy
11:16 PM 37.4 °F 31.4 °F 33.8 °F 87% 29.70 in 10.0 mi NNW 8.1 mph - N/A   Mostly Cloudy
11:36 PM 35.6 °F 29.2 °F 30.2 °F 81% 29.70 in 10.0 mi NNW 8.1 mph - N/A   Scattered Clouds
11:56 PM 37.4 °F 31.4 °F 33.8 °F 87% 29.69 in 10.0 mi NNW 8.1 mph - N/A   Mostly Cloudy